Time,TemperatureF,DewpointF,PressureIn,WindDirection,WindDirectionDegrees,WindSpeedMPH,WindSpeedGustMPH,Humidity,HourlyPrecipIn,Conditions,Clouds,dailyrainin,SoftwareType,DateUTC
2013-01-13 00:00:00,73.8,64.2,30.10,ESE,112,6.9,6.9,72,0.00,CLR,,0.00,WeatherDisplay:10.37,2013-01-13 05:00:00,
2013-01-13 00:01:00,73.8,64.2,30.10,SE,135,6.9,6.9,72,0.00,CLR,,0.00,WeatherDisplay:10.37,2013-01-13 05:01:00,
2013-01-13 00:02:00,73.8,64.2,30.10,SE,135,6.9,6.9,72,0.00,CLR,,0.00,WeatherDisplay:10.37,2013-01-13 05:02:00,
2013-01-13 00:07:00,73.8,65.0,30.10,SE,135,6.9,6.9,74,0.00,CLR,,0.00,WeatherDisplay:10.37,2013-01-13 05:07:00,
2013-01-13 00:12:00,73.9,65.5,30.10,ESE,112,6.9,6.9,75,0.00,CLR,,0.00,WeatherDisplay:10.37,2013-01-13 05:12:00,
2013-01-13 00:17:00,73.9,65.9,30.10,SSE,158,4.6,4.6,76,0.00,CLR,,0.00,WeatherDisplay:10.37,2013-01-13 05:17:00,
2013-01-13 00:22:00,74.1,66.4,30.10,SSE,158,8.1,8.1,77,0.00,CLR,,0.00,WeatherDisplay:10.37,2013-01-13 05:22:00,
2013-01-13 00:27:00,74.5,67.2,30.10,ESE,112,11.5,11.5,78,0.00,CLR,,0.00,WeatherDisplay:10.37,2013-01-13 05:27:00,
2013-01-13 00:32:00,74.3,67.4,30.10,East,90,8.1,8.1,79,0.00,CLR,,0.00,WeatherDisplay:10.37,2013-01-13 05:32:00,
2013-01-13 00:37:00,74.3,67.7,30.10,NNE,22,11.9,11.9,80,0.00,CLR,,0.00,WeatherDisplay:10.37,2013-01-13 05:37:00,
2013-01-13 00:42:00,74.3,67.7,30.09,SSE,158,9.2,9.2,80,0.00,CLR,,0.00,WeatherDisplay:10.37,2013-01-13 05:42:00,
2013-01-13 00:47:00,74.3,67.7,30.09,ESE,112,10.4,10.4,80,0.00,CLR,,0.00,WeatherDisplay:10.37,2013-01-13 05:47:00,
2013-01-13 00:52:00,74.3,68.1,30.10,ENE,68,5.8,5.8,81,0.00,CLR,,0.00,WeatherDisplay:10.37,2013-01-13 05:52:00,
2013-01-13 00:57:00,74.1,68.3,30.10,ESE,112,8.1,8.1,82,0.00,CLR,,0.00,WeatherDisplay:10.37,2013-01-13 05:57:00,
2013-01-13 01:02:00,74.1,68.3,30.10,SSE,158,9.2,9.2,82,0.00,CLR,,0.00,WeatherDisplay:10.37,2013-01-13 06:02:00,
2013-01-13 01:07:00,74.3,68.1,30.10,ESE,112,5.8,5.8,81,0.00,CLR,,0.00,WeatherDisplay:10.37,2013-01-13 06:07:00,
2013-01-13 01:12:00,74.3,68.1,30.10,SSE,158,5.8,5.8,81,0.00,CLR,,0.00,WeatherDisplay:10.37,2013-01-13 06:12:00,
2013-01-13 01:17:00,74.3,68.4,30.09,SSE,158,6.8,6.8,82,0.00,CLR,,0.00,WeatherDisplay:10.37,2013-01-13 06:17:00,
2013-01-13 01:22:00,73.9,68.4,30.09,SE,135,5.8,5.8,83,0.00,CLR,,0.00,WeatherDisplay:10.37,2013-01-13 06:22:00,
2013-01-13 01:27:00,73.9,68.4,30.10,SSE,158,9.2,9.2,83,0.00,CLR,,0.00,WeatherDisplay:10.37,2013-01-13 06:27:00,
2013-01-13 01:32:00,73.9,68.4,30.10,SE,135,9.2,9.2,83,0.00,CLR,,0.00,WeatherDisplay:10.37,2013-01-13 06:32:00,
2013-01-13 01:37:00,73.9,68.4,30.09,SSE,158,5.8,5.8,83,0.00,CLR,,0.00,WeatherDisplay:10.37,2013-01-13 06:37:00,
2013-01-13 01:42:00,74.3,68.8,30.09,SSE,158,8.3,8.3,83,0.00,CLR,,0.00,WeatherDisplay:10.37,2013-01-13 06:42:00,
2013-01-13 01:47:00,74.3,68.4,30.09,SSE,158,8.3,8.3,82,0.00,CLR,,0.00,WeatherDisplay:10.37,2013-01-13 06:47:00,
2013-01-13 01:52:00,74.3,68.4,30.09,SSE,158,10.4,10.4,82,0.00,CLR,,0.00,WeatherDisplay:10.37,2013-01-13 06:52:00,
2013-01-13 01:57:00,74.1,68.6,30.09,SSE,158,10.4,10.4,83,0.00,CLR,,0.00,WeatherDisplay:10.37,2013-01-13 06:57:00,
2013-01-13 02:02:00,73.9,68.1,30.09,SE,135,9.2,9.2,82,0.00,CLR,,0.00,WeatherDisplay:10.37,2013-01-13 07:02:00,
2013-01-13 02:07:00,73.8,67.6,30.09,SSE,158,12.7,12.7,81,0.00,CLR,,0.00,WeatherDisplay:10.37,2013-01-13 07:07:00,
2013-01-13 02:12:00,73.8,67.2,30.09,SE,135,9.4,9.4,80,0.00,CLR,,0.00,WeatherDisplay:10.37,2013-01-13 07:12:00,
2013-01-13 02:17:00,73.8,67.2,30.09,SSE,158,10.4,10.4,80,0.00,CLR,,0.00,WeatherDisplay:10.37,2013-01-13 07:17:00,
2013-01-13 02:22:00,73.8,67.2,30.09,SE,135,8.1,8.1,80,0.00,CLR,,0.00,WeatherDisplay:10.37,2013-01-13 07:22:00,
2013-01-13 02:27:00,73.8,67.6,30.09,SSE,158,9.2,9.2,81,0.00,CLR,,0.00,WeatherDisplay:10.37,2013-01-13 07:27:00,
2013-01-13 02:32:00,73.8,67.6,30.09,SSE,158,9.2,9.2,81,0.00,CLR,,0.00,WeatherDisplay:10.37,2013-01-13 07:32:00,
2013-01-13 02:37:00,73.8,67.6,30.09,SE,135,8.1,8.1,81,0.00,CLR,,0.00,WeatherDisplay:10.37,2013-01-13 07:37:00,
2013-01-13 02:42:00,73.6,67.8,30.09,SE,135,4.6,4.6,82,0.00,CLR,,0.00,WeatherDisplay:10.37,2013-01-13 07:42:00,
2013-01-13 02:47:00,73.4,67.6,30.09,SE,135,6.9,6.9,82,0.00,CLR,,0.00,WeatherDisplay:10.37,2013-01-13 07:47:00,
2013-01-13 02:52:00,73.2,68.1,30.09,SSE,158,5.8,5.8,84,0.00,CLR,,0.00,WeatherDisplay:10.37,2013-01-13 07:52:00,
2013-01-13 02:57:00,73.2,68.1,30.09,SSE,158,5.8,5.8,84,0.00,CLR,,0.00,WeatherDisplay:10.37,2013-01-13 07:57:00,
2013-01-13 03:02:00,73.0,67.9,30.09,SSE,158,10.4,10.4,84,0.00,CLR,,0.00,WeatherDisplay:10.37,2013-01-13 08:02:00,
2013-01-13 03:07:00,73.2,67.4,30.09,SE,135,9.2,9.2,82,0.00,CLR,,0.00,WeatherDisplay:10.37,2013-01-13 08:07:00,
2013-01-13 03:12:00,73.6,66.7,30.09,SE,135,11.4,11.4,79,0.00,CLR,,0.00,WeatherDisplay:10.37,2013-01-13 08:12:00,
2013-01-13 03:17:00,73.2,66.7,30.08,SE,135,8.1,8.1,80,0.00,CLR,,0.00,WeatherDisplay:10.37,2013-01-13 08:17:00,
2013-01-13 03:22:00,73.2,66.7,30.08,ESE,112,10.4,10.4,80,0.00,CLR,,0.00,WeatherDisplay:10.37,2013-01-13 08:22:00,
2013-01-13 03:28:00,73.6,66.7,30.08,ESE,112,17.3,17.3,79,0.00,CLR,,0.00,WeatherDisplay:10.37,2013-01-13 08:28:00,
2013-01-13 03:33:00,73.8,66.5,30.08,SSE,158,15.0,15.0,78,0.00,CLR,,0.00,WeatherDisplay:10.37,2013-01-13 08:33:00,
2013-01-13 03:38:00,73.8,66.5,30.08,SE,135,13.8,13.8,78,0.00,CLR,,0.00,WeatherDisplay:10.37,2013-01-13 08:38:00,
2013-01-13 03:43:00,73.6,66.3,30.08,South,180,11.5,11.5,78,0.00,CLR,,0.00,WeatherDisplay:10.37,2013-01-13 08:43:00,
2013-01-13 03:48:00,73.8,66.5,30.08,ESE,112,11.5,11.5,78,0.00,CLR,,0.00,WeatherDisplay:10.37,2013-01-13 08:48:00,
2013-01-13 03:53:00,73.8,66.5,30.08,SSE,158,12.7,12.7,78,0.00,CLR,,0.00,WeatherDisplay:10.37,2013-01-13 08:53:00,
2013-01-13 03:58:00,73.8,66.1,30.08,South,180,10.9,10.9,77,0.00,CLR,,0.00,WeatherDisplay:10.37,2013-01-13 08:58:00,
2013-01-13 04:03:00,73.8,65.8,30.08,South,180,11.5,11.5,76,0.00,CLR,,0.00,WeatherDisplay:10.37,2013-01-13 09:03:00,
2013-01-13 04:08:00,73.8,65.4,30.08,SSE,158,11.5,11.5,75,0.00,CLR,,0.00,WeatherDisplay:10.37,2013-01-13 09:08:00,
2013-01-13 04:13:00,73.8,65.0,30.08,South,180,12.7,12.7,74,0.00,CLR,,0.00,WeatherDisplay:10.37,2013-01-13 09:13:00,
2013-01-13 04:18:00,73.8,65.8,30.08,ESE,112,11.5,11.5,76,0.00,CLR,,0.00,WeatherDisplay:10.37,2013-01-13 09:18:00,
2013-01-13 04:23:00,73.8,66.1,30.08,ESE,112,9.4,9.4,77,0.00,CLR,,0.00,WeatherDisplay:10.37,2013-01-13 09:23:00,
2013-01-13 04:28:00,73.8,66.1,30.08,South,180,12.7,12.7,77,0.00,CLR,,0.00,WeatherDisplay:10.37,2013-01-13 09:28:00,
2013-01-13 04:33:00,73.8,66.1,30.08,ESE,112,10.4,10.4,77,0.00,CLR,,0.00,WeatherDisplay:10.37,2013-01-13 09:33:00,
2013-01-13 04:38:00,73.6,66.3,30.08,ESE,112,10.4,10.4,78,0.00,CLR,,0.00,WeatherDisplay:10.37,2013-01-13 09:38:00,
2013-01-13 04:43:00,73.6,66.3,30.08,SSE,158,11.5,11.5,78,0.00,CLR,,0.00,WeatherDisplay:10.37,2013-01-13 09:43:00,
2013-01-13 04:48:00,73.4,66.1,30.08,SSE,158,10.4,10.4,78,0.00,CLR,,0.00,WeatherDisplay:10.37,2013-01-13 09:48:00,
2013-01-13 04:53:00,73.4,65.4,30.08,ESE,112,8.3,8.3,76,0.00,CLR,,0.00,WeatherDisplay:10.37,2013-01-13 09:53:00,
2013-01-13 04:58:00,73.4,65.4,30.08,ESE,112,13.0,13.0,76,0.00,CLR,,0.00,WeatherDisplay:10.37,2013-01-13 09:58:00,
2013-01-13 05:03:00,73.4,65.7,30.08,SSE,158,8.1,8.1,77,0.00,CLR,,0.00,WeatherDisplay:10.37,2013-01-13 10:03:00,
2013-01-13 05:08:00,73.4,65.7,30.08,SSE,158,10.4,10.4,77,0.00,CLR,,0.00,WeatherDisplay:10.37,2013-01-13 10:08:00,
2013-01-13 05:13:00,73.2,65.6,30.08,SSE,158,9.4,9.4,77,0.00,CLR,,0.00,WeatherDisplay:10.37,2013-01-13 10:13:00,
2013-01-13 05:18:00,73.4,65.7,30.08,SE,135,11.5,11.5,77,0.00,CLR,,0.00,WeatherDisplay:10.37,2013-01-13 10:18:00,
2013-01-13 05:23:00,73.2,65.6,30.08,ESE,112,13.0,13.0,77,0.00,CLR,,0.00,WeatherDisplay:10.37,2013-01-13 10:23:00,
2013-01-13 05:28:00,73.4,65.4,30.08,SE,135,10.4,10.4,76,0.00,CLR,,0.00,WeatherDisplay:10.37,2013-01-13 10:28:00,
2013-01-13 05:33:00,73.0,65.4,30.08,SSE,158,5.8,5.8,77,0.00,CLR,,0.00,WeatherDisplay:10.37,2013-01-13 10:33:00,
2013-01-13 05:38:00,72.9,64.9,30.09,SSE,158,8.1,8.1,76,0.00,CLR,,0.00,WeatherDisplay:10.37,2013-01-13 10:38:00,
2013-01-13 05:43:00,73.0,65.0,30.09,SE,135,7.8,7.8,76,0.00,CLR,,0.00,WeatherDisplay:10.37,2013-01-13 10:43:00,
2013-01-13 05:48:00,73.0,65.4,30.09,SE,135,6.9,6.9,77,0.00,CLR,,0.00,WeatherDisplay:10.37,2013-01-13 10:48:00,
2013-01-13 05:53:00,73.0,65.7,30.08,South,180,10.4,10.4,78,0.00,CLR,,0.00,WeatherDisplay:10.37,2013-01-13 10:53:00,
2013-01-13 05:58:00,73.0,65.0,30.08,SSE,158,8.1,8.1,76,0.00,CLR,,0.00,WeatherDisplay:10.37,2013-01-13 10:58:00,
2013-01-13 06:03:00,73.0,65.0,30.08,ESE,112,9.2,9.2,76,0.00,CLR,,0.00,WeatherDisplay:10.37,2013-01-13 11:03:00,
2013-01-13 06:08:00,72.9,64.9,30.08,SSE,158,6.9,6.9,76,0.00,CLR,,0.00,WeatherDisplay:10.37,2013-01-13 11:08:00,
2013-01-13 06:13:00,72.9,64.9,30.08,SSE,158,3.7,3.7,76,0.00,CLR,,0.00,WeatherDisplay:10.37,2013-01-13 11:13:00,
2013-01-13 06:18:00,72.9,65.3,30.09,SE,135,7.8,7.8,77,0.00,CLR,,0.00,WeatherDisplay:10.37,2013-01-13 11:18:00,
2013-01-13 06:23:00,72.9,65.3,30.09,ESE,112,6.9,6.9,77,0.00,CLR,,0.00,WeatherDisplay:10.37,2013-01-13 11:23:00,
2013-01-13 06:28:00,73.0,65.7,30.09,East,90,11.5,11.5,78,0.00,CLR,,0.00,WeatherDisplay:10.37,2013-01-13 11:28:00,
2013-01-13 06:33:00,73.0,66.1,30.09,SE,135,9.4,9.4,79,0.00,CLR,,0.00,WeatherDisplay:10.37,2013-01-13 11:33:00,
2013-01-13 06:38:00,73.0,66.1,30.09,SE,135,6.3,6.3,79,0.00,CLR,,0.00,WeatherDisplay:10.37,2013-01-13 11:38:00,
2013-01-13 06:43:00,73.2,65.6,30.08,South,180,11.5,11.5,77,0.00,CLR,,0.00,WeatherDisplay:10.37,2013-01-13 11:43:00,
2013-01-13 06:48:00,73.2,65.6,30.08,ESE,112,13.8,13.8,77,0.00,CLR,,0.00,WeatherDisplay:10.37,2013-01-13 11:48:00,
2013-01-13 06:53:00,73.0,65.7,30.08,East,90,9.2,9.2,78,0.00,CLR,,0.00,WeatherDisplay:10.37,2013-01-13 11:53:00,
2013-01-13 06:58:00,73.0,65.7,30.08,SE,135,8.1,8.1,78,0.00,CLR,,0.00,WeatherDisplay:10.37,2013-01-13 11:58:00,
2013-01-13 07:03:00,73.2,65.9,30.08,SSE,158,10.4,10.4,78,0.00,CLR,,0.00,WeatherDisplay:10.37,2013-01-13 12:03:00,
2013-01-13 07:08:00,73.2,65.9,30.08,SE,135,9.2,9.2,78,0.00,CLR,,0.00,WeatherDisplay:10.37,2013-01-13 12:08:00,
2013-01-13 07:13:00,73.4,66.1,30.08,ESE,112,11.5,11.5,78,0.00,CLR,,0.00,WeatherDisplay:10.37,2013-01-13 12:13:00,
2013-01-13 07:18:00,73.2,65.9,30.08,SSE,158,6.8,6.8,78,0.00,CLR,,0.00,WeatherDisplay:10.37,2013-01-13 12:18:00,
2013-01-13 07:23:00,73.2,65.9,30.08,SSE,158,8.1,8.1,78,0.00,CLR,,0.00,WeatherDisplay:10.37,2013-01-13 12:23:00,
2013-01-13 07:28:00,73.4,66.1,30.08,ESE,112,13.0,13.0,78,0.00,CLR,,0.00,WeatherDisplay:10.37,2013-01-13 12:28:00,
2013-01-13 07:33:00,73.4,66.5,30.08,ESE,112,11.4,11.4,79,0.00,CLR,,0.00,WeatherDisplay:10.37,2013-01-13 12:33:00,
2013-01-13 07:38:00,73.4,66.5,30.08,ESE,112,8.1,8.1,79,0.00,CLR,,0.00,WeatherDisplay:10.37,2013-01-13 12:38:00,
2013-01-13 07:43:00,73.2,66.7,30.08,SSE,158,11.5,11.5,80,0.00,CLR,,0.00,WeatherDisplay:10.37,2013-01-13 12:43:00,
2013-01-13 07:48:00,73.4,66.9,30.08,SE,135,9.9,9.9,80,0.00,CLR,,0.00,WeatherDisplay:10.37,2013-01-13 12:48:00,
2013-01-13 07:53:00,73.4,66.9,30.09,SSE,158,9.9,9.9,80,0.00,CLR,,0.00,WeatherDisplay:10.37,2013-01-13 12:53:00,
2013-01-13 07:58:00,73.9,67.3,30.09,SE,135,10.4,10.4,80,0.00,CLR,,0.00,WeatherDisplay:10.37,2013-01-13 12:58:00,
2013-01-13 08:03:00,74.3,67.7,30.08,SE,135,10.4,10.4,80,0.00,CLR,,0.00,WeatherDisplay:10.37,2013-01-13 13:03:00,
2013-01-13 08:08:00,74.3,67.7,30.08,ESE,112,8.3,8.3,80,0.00,CLR,,0.00,WeatherDisplay:10.37,2013-01-13 13:08:00,
2013-01-13 08:13:00,74.3,67.4,30.08,South,180,12.7,12.7,79,0.00,CLR,,0.00,WeatherDisplay:10.37,2013-01-13 13:13:00,
2013-01-13 08:18:00,74.5,67.6,30.08,SE,135,10.4,10.4,79,0.00,CLR,,0.00,WeatherDisplay:10.37,2013-01-13 13:18:00,
2013-01-13 08:23:00,74.5,67.6,30.08,SE,135,8.1,8.1,79,0.00,CLR,,0.00,WeatherDisplay:10.37,2013-01-13 13:23:00,
2013-01-13 08:28:00,74.3,67.4,30.09,SSE,158,6.9,6.9,79,0.00,CLR,,0.00,WeatherDisplay:10.37,2013-01-13 13:28:00,
2013-01-13 08:33:00,74.7,67.8,30.09,South,180,10.4,10.4,79,0.00,CLR,,0.00,WeatherDisplay:10.37,2013-01-13 13:33:00,
2013-01-13 08:38:00,74.7,67.8,30.08,ESE,112,15.0,15.0,79,0.00,CLR,,0.00,WeatherDisplay:10.37,2013-01-13 13:38:00,
2013-01-13 08:43:00,74.8,67.5,30.08,South,180,11.5,11.5,78,0.00,CLR,,0.00,WeatherDisplay:10.37,2013-01-13 13:43:00,
2013-01-13 08:48:00,75.6,68.3,30.08,ESE,112,11.9,11.9,78,0.00,CLR,,0.00,WeatherDisplay:10.37,2013-01-13 13:48:00,
2013-01-13 08:53:00,75.9,67.4,30.09,ESE,112,10.4,10.4,75,0.00,CLR,,0.00,WeatherDisplay:10.37,2013-01-13 13:53:00,
2013-01-13 08:58:00,75.9,67.4,30.09,SE,135,14.5,14.5,75,0.00,CLR,,0.00,WeatherDisplay:10.37,2013-01-13 13:58:00,
2013-01-13 09:03:00,75.7,67.6,30.09,ESE,112,12.7,12.7,76,0.00,CLR,,0.00,WeatherDisplay:10.37,2013-01-13 14:03:00,
2013-01-13 09:08:00,76.3,68.2,30.09,ESE,112,12.7,12.7,76,0.00,CLR,,0.00,WeatherDisplay:10.37,2013-01-13 14:08:00,
2013-01-13 09:13:00,76.3,68.2,30.09,SE,135,9.4,9.4,76,0.00,CLR,,0.00,WeatherDisplay:10.37,2013-01-13 14:13:00,
2013-01-13 09:18:00,75.4,67.7,30.09,ESE,112,12.7,12.7,77,0.00,CLR,,0.00,WeatherDisplay:10.37,2013-01-13 14:18:00,
2013-01-13 09:23:00,75.6,67.9,30.09,SSE,158,10.4,10.4,77,0.00,CLR,,0.00,WeatherDisplay:10.37,2013-01-13 14:23:00,
2013-01-13 09:28:00,75.6,67.9,30.10,SE,135,12.7,12.7,77,0.00,CLR,,0.00,WeatherDisplay:10.37,2013-01-13 14:28:00,
2013-01-13 09:33:00,75.4,68.1,30.10,SE,135,11.5,11.5,78,0.00,CLR,,0.00,WeatherDisplay:10.37,2013-01-13 14:33:00,
2013-01-13 09:38:00,75.6,68.3,30.10,SE,135,13.8,13.8,78,0.00,CLR,,0.00,WeatherDisplay:10.37,2013-01-13 14:38:00,
2013-01-13 09:43:00,76.1,67.6,30.10,SSE,158,11.9,11.9,75,0.00,CLR,,0.00,WeatherDisplay:10.37,2013-01-13 14:43:00,
2013-01-13 09:48:00,75.9,67.4,30.10,SSE,158,9.2,9.2,75,0.00,CLR,,0.00,WeatherDisplay:10.37,2013-01-13 14:48:00,
2013-01-13 09:53:00,77.7,68.4,30.10,SE,135,9.2,9.2,73,0.00,CLR,,0.00,WeatherDisplay:10.37,2013-01-13 14:53:00,
2013-01-13 09:58:00,77.0,67.7,30.10,South,180,15.5,15.5,73,0.00,CLR,,0.00,WeatherDisplay:10.37,2013-01-13 14:58:00,
2013-01-13 10:03:00,77.2,67.1,30.10,ESE,112,13.8,13.8,71,0.00,CLR,,0.00,WeatherDisplay:10.37,2013-01-13 15:03:00,
2013-01-13 10:08:00,77.5,67.4,30.10,SSE,158,16.1,16.1,71,0.00,CLR,,0.00,WeatherDisplay:10.37,2013-01-13 15:08:00,
2013-01-13 10:13:00,77.9,67.7,30.10,SSE,158,17.6,17.6,71,0.00,CLR,,0.00,WeatherDisplay:10.37,2013-01-13 15:13:00,
2013-01-13 10:18:00,77.4,67.7,30.10,ESE,112,15.0,15.0,72,0.00,CLR,,0.00,WeatherDisplay:10.37,2013-01-13 15:18:00,
2013-01-13 10:23:00,77.7,68.0,30.10,SE,135,19.6,19.6,72,0.00,CLR,,0.00,WeatherDisplay:10.37,2013-01-13 15:23:00,
2013-01-13 10:28:00,78.6,68.0,30.10,SE,135,10.4,10.4,70,0.00,CLR,,0.00,WeatherDisplay:10.37,2013-01-13 15:28:00,
2013-01-13 10:33:00,78.1,67.5,30.10,SE,135,10.4,10.4,70,0.00,CLR,,0.00,WeatherDisplay:10.37,2013-01-13 15:33:00,
2013-01-13 10:38:00,78.3,67.7,30.10,ESE,112,15.0,15.0,70,0.00,CLR,,0.00,WeatherDisplay:10.37,2013-01-13 15:38:00,
2013-01-13 10:43:00,78.8,67.8,30.10,SSE,158,11.5,11.5,69,0.00,CLR,,0.00,WeatherDisplay:10.37,2013-01-13 15:43:00,
2013-01-13 10:48:00,79.0,67.5,30.10,South,180,14.0,14.0,68,0.00,CLR,,0.00,WeatherDisplay:10.37,2013-01-13 15:48:00,
2013-01-13 10:53:00,79.0,67.5,30.10,SE,135,9.4,9.4,68,0.00,CLR,,0.00,WeatherDisplay:10.37,2013-01-13 15:53:00,
2013-01-13 10:58:00,78.4,67.8,30.10,ESE,112,13.8,13.8,70,0.00,CLR,,0.00,WeatherDisplay:10.37,2013-01-13 15:58:00,
2013-01-13 11:03:00,77.9,67.7,30.10,ESE,112,16.1,16.1,71,0.00,CLR,,0.00,WeatherDisplay:10.37,2013-01-13 16:03:00,
2013-01-13 11:08:00,77.9,67.7,30.10,South,180,12.7,12.7,71,0.00,CLR,,0.00,WeatherDisplay:10.37,2013-01-13 16:08:00,
2013-01-13 11:13:00,79.0,68.4,30.10,SSE,158,13.8,13.8,70,0.00,CLR,,0.00,WeatherDisplay:10.37,2013-01-13 16:13:00,
2013-01-13 11:18:00,77.7,67.5,30.10,SSE,158,15.0,15.0,71,0.00,CLR,,0.00,WeatherDisplay:10.37,2013-01-13 16:18:00,
2013-01-13 11:23:00,78.6,68.4,30.10,SSE,158,8.1,8.1,71,0.00,CLR,,0.00,WeatherDisplay:10.37,2013-01-13 16:23:00,
2013-01-13 11:28:00,79.3,68.2,30.10,SSE,158,13.8,13.8,69,0.00,CLR,,0.00,WeatherDisplay:10.37,2013-01-13 16:28:00,
2013-01-13 11:33:00,80.4,68.4,30.10,SSE,158,11.5,11.5,67,0.00,CLR,,0.00,WeatherDisplay:10.37,2013-01-13 16:33:00,
2013-01-13 11:38:00,80.2,68.2,30.11,SSE,158,10.4,10.4,67,0.00,CLR,,0.00,WeatherDisplay:10.37,2013-01-13 16:38:00,
2013-01-13 11:43:00,78.6,67.6,30.11,SE,135,11.5,11.5,69,0.00,CLR,,0.00,WeatherDisplay:10.37,2013-01-13 16:43:00,
2013-01-13 11:48:00,80.1,68.2,30.11,South,180,13.8,13.8,67,0.00,CLR,,0.00,WeatherDisplay:10.37,2013-01-13 16:48:00,
2013-01-13 11:53:00,79.2,67.3,30.11,South,180,11.5,11.5,67,0.00,CLR,,0.00,WeatherDisplay:10.37,2013-01-13 16:53:00,
2013-01-13 11:58:00,80.1,67.7,30.11,SSE,158,10.9,10.9,66,0.00,CLR,,0.00,WeatherDisplay:10.37,2013-01-13 16:58:00,
2013-01-13 12:03:00,79.9,68.0,30.10,SSE,158,10.4,10.4,67,0.00,CLR,,0.00,WeatherDisplay:10.37,2013-01-13 17:03:00,
2013-01-13 12:08:00,78.6,67.2,30.10,ESE,112,15.0,15.0,68,0.00,CLR,,0.00,WeatherDisplay:10.37,2013-01-13 17:08:00,
2013-01-13 12:13:00,80.6,67.7,30.10,SW,225,9.4,9.4,65,0.00,CLR,,0.00,WeatherDisplay:10.37,2013-01-13 17:13:00,
2013-01-13 12:18:00,79.2,67.3,30.11,South,180,11.5,11.5,67,0.00,CLR,,0.00,WeatherDisplay:10.37,2013-01-13 17:18:00,
2013-01-13 12:23:00,78.3,66.9,30.11,SE,135,11.5,11.5,68,0.00,CLR,,0.00,WeatherDisplay:10.37,2013-01-13 17:23:00,
2013-01-13 12:28:00,80.8,67.5,30.11,ESE,112,10.4,10.4,64,0.00,CLR,,0.00,WeatherDisplay:10.37,2013-01-13 17:28:00,
2013-01-13 12:33:00,79.9,67.1,30.11,SE,135,11.5,11.5,65,0.00,CLR,,0.00,WeatherDisplay:10.37,2013-01-13 17:33:00,
2013-01-13 12:38:00,80.1,67.3,30.10,SE,135,10.4,10.4,65,0.00,CLR,,0.00,WeatherDisplay:10.37,2013-01-13 17:38:00,
2013-01-13 12:43:00,78.8,66.5,30.10,ESE,112,9.2,9.2,66,0.00,CLR,,0.00,WeatherDisplay:10.37,2013-01-13 17:43:00,
2013-01-13 12:48:00,78.6,66.7,30.10,ESE,112,15.0,15.0,67,0.00,CLR,,0.00,WeatherDisplay:10.37,2013-01-13 17:48:00,
2013-01-13 12:53:00,79.5,67.1,30.10,SSE,158,13.8,13.8,66,0.00,CLR,,0.00,WeatherDisplay:10.37,2013-01-13 17:53:00,
2013-01-13 12:58:00,81.1,67.3,30.10,SSE,158,10.4,10.4,63,0.00,CLR,,0.00,WeatherDisplay:10.37,2013-01-13 17:58:00,
2013-01-13 13:03:00,81.3,67.0,30.10,SE,135,8.1,8.1,62,0.00,CLR,,0.00,WeatherDisplay:10.37,2013-01-13 18:03:00,
2013-01-13 13:08:00,79.5,66.7,30.10,SE,135,9.2,9.2,65,0.00,CLR,,0.00,WeatherDisplay:10.37,2013-01-13 18:08:00,
2013-01-13 13:13:00,81.5,67.7,30.10,South,180,11.5,11.5,63,0.00,CLR,,0.00,WeatherDisplay:10.37,2013-01-13 18:13:00,
2013-01-13 13:18:00,79.7,66.4,30.10,SSE,158,9.2,9.2,64,0.00,CLR,,0.00,WeatherDisplay:10.37,2013-01-13 18:18:00,
2013-01-13 13:23:00,78.8,67.3,30.10,SE,135,10.4,10.4,68,0.00,CLR,,0.00,WeatherDisplay:10.37,2013-01-13 18:23:00,
2013-01-13 13:28:00,79.2,66.9,30.10,SE,135,10.4,10.4,66,0.00,CLR,,0.00,WeatherDisplay:10.37,2013-01-13 18:28:00,
2013-01-13 13:33:00,80.6,66.8,30.10,SE,135,9.2,9.2,63,0.00,CLR,,0.00,WeatherDisplay:10.37,2013-01-13 18:33:00,
2013-01-13 13:38:00,79.0,67.1,30.10,SE,135,6.9,6.9,67,0.00,CLR,,0.00,WeatherDisplay:10.37,2013-01-13 18:38:00,
2013-01-13 13:43:00,79.0,66.7,30.10,SSE,158,11.5,11.5,66,0.00,CLR,,0.00,WeatherDisplay:10.37,2013-01-13 18:43:00,
2013-01-13 13:48:00,79.9,67.1,30.10,SE,135,8.3,8.3,65,0.00,CLR,,0.00,WeatherDisplay:10.37,2013-01-13 18:48:00,
2013-01-13 13:53:00,78.3,66.4,30.10,SSE,158,10.4,10.4,67,0.00,CLR,,0.00,WeatherDisplay:10.37,2013-01-13 18:53:00,
2013-01-13 13:58:00,78.3,66.4,30.10,SSE,158,7.3,7.3,67,0.00,CLR,,0.00,WeatherDisplay:10.37,2013-01-13 18:58:00,
2013-01-13 14:03:00,80.1,66.8,30.09,SSE,158,10.4,10.4,64,0.00,CLR,,0.00,WeatherDisplay:10.37,2013-01-13 19:03:00,
2013-01-13 14:08:00,80.4,67.1,30.09,ESE,112,10.4,10.4,64,0.00,CLR,,0.00,WeatherDisplay:10.37,2013-01-13 19:08:00,
2013-01-13 14:13:00,80.6,66.8,30.09,SSE,158,9.2,9.2,63,0.00,CLR,,0.00,WeatherDisplay:10.37,2013-01-13 19:13:00,
2013-01-13 14:18:00,80.1,66.4,30.10,SE,135,5.8,5.8,63,0.00,CLR,,0.00,WeatherDisplay:10.37,2013-01-13 19:18:00,
2013-01-13 14:23:00,79.2,66.4,30.10,SSE,158,10.4,10.4,65,0.00,CLR,,0.00,WeatherDisplay:10.37,2013-01-13 19:23:00,
2013-01-13 14:28:00,80.1,66.8,30.10,SE,135,6.9,6.9,64,0.00,CLR,,0.00,WeatherDisplay:10.37,2013-01-13 19:28:00,
2013-01-13 14:33:00,79.3,66.1,30.10,SSE,158,9.2,9.2,64,0.00,CLR,,0.00,WeatherDisplay:10.37,2013-01-13 19:33:00,
2013-01-13 14:38:00,79.9,66.6,30.10,ESE,112,5.8,5.8,64,0.00,CLR,,0.00,WeatherDisplay:10.37,2013-01-13 19:38:00,
2013-01-13 14:43:00,78.4,66.1,30.09,SSE,158,10.4,10.4,66,0.00,CLR,,0.00,WeatherDisplay:10.37,2013-01-13 19:43:00,
2013-01-13 14:48:00,80.1,66.4,30.09,ESE,112,6.9,6.9,63,0.00,CLR,,0.00,WeatherDisplay:10.37,2013-01-13 19:48:00,
2013-01-13 14:53:00,79.0,66.2,30.09,SSE,158,11.5,11.5,65,0.00,CLR,,0.00,WeatherDisplay:10.37,2013-01-13 19:53:00,
2013-01-13 14:58:00,77.7,65.9,30.09,SSE,158,10.4,10.4,67,0.00,CLR,,0.00,WeatherDisplay:10.37,2013-01-13 19:58:00,
2013-01-13 15:03:00,78.1,65.4,30.09,ESE,112,10.4,10.4,65,0.00,CLR,,0.00,WeatherDisplay:10.37,2013-01-13 20:03:00,
2013-01-13 15:08:00,79.0,66.2,30.09,SW,225,5.8,5.8,65,0.00,CLR,,0.00,WeatherDisplay:10.37,2013-01-13 20:08:00,
2013-01-13 15:13:00,78.4,65.7,30.09,SE,135,9.2,9.2,65,0.00,CLR,,0.00,WeatherDisplay:10.37,2013-01-13 20:13:00,
2013-01-13 15:18:00,78.6,65.4,30.09,SW,225,10.4,10.4,64,0.00,CLR,,0.00,WeatherDisplay:10.37,2013-01-13 20:18:00,
2013-01-13 15:23:00,79.9,66.2,30.09,WNW,292,4.7,4.7,63,0.00,CLR,,0.00,WeatherDisplay:10.37,2013-01-13 20:23:00,
2013-01-13 15:28:00,79.2,66.0,30.09,NE,45,5.8,5.8,64,0.00,CLR,,0.00,WeatherDisplay:10.37,2013-01-13 20:28:00,
2013-01-13 15:33:00,78.1,65.4,30.09,ESE,112,10.4,10.4,65,0.00,CLR,,0.00,WeatherDisplay:10.37,2013-01-13 20:33:00,
2013-01-13 15:38:00,77.9,64.7,30.10,SE,135,8.3,8.3,64,0.00,CLR,,0.00,WeatherDisplay:10.37,2013-01-13 20:38:00,
2013-01-13 15:43:00,77.4,65.1,30.10,SSE,158,8.1,8.1,66,0.00,CLR,,0.00,WeatherDisplay:10.37,2013-01-13 20:43:00,
2013-01-13 15:48:00,77.5,65.2,30.10,SE,135,9.2,9.2,66,0.00,CLR,,0.00,WeatherDisplay:10.37,2013-01-13 20:48:00,
2013-01-13 15:53:00,77.2,65.4,30.10,ESE,112,8.1,8.1,67,0.00,CLR,,0.00,WeatherDisplay:10.37,2013-01-13 20:53:00,
2013-01-13 15:58:00,77.7,65.0,30.10,ESE,112,11.4,11.4,65,0.00,CLR,,0.00,WeatherDisplay:10.37,2013-01-13 20:58:00,
2013-01-13 16:03:00,77.0,64.8,30.10,ESE,112,10.4,10.4,66,0.00,CLR,,0.00,WeatherDisplay:10.37,2013-01-13 21:03:00,
2013-01-13 16:08:00,77.4,66.0,30.10,East,90,9.2,9.2,68,0.00,CLR,,0.00,WeatherDisplay:10.37,2013-01-13 21:08:00,
2013-01-13 16:13:00,76.6,66.1,30.11,SSE,158,9.2,9.2,70,0.00,CLR,,0.00,WeatherDisplay:10.37,2013-01-13 21:13:00,
2013-01-13 16:19:00,76.6,65.7,30.11,South,180,8.1,8.1,69,0.00,CLR,,0.00,WeatherDisplay:10.37,2013-01-13 21:19:00,
2013-01-13 16:24:00,77.0,66.0,30.11,SE,135,6.3,6.3,69,0.00,CLR,,0.00,WeatherDisplay:10.37,2013-01-13 21:24:00,
2013-01-13 16:29:00,76.5,66.4,30.11,SSE,158,10.4,10.4,71,0.00,CLR,,0.00,WeatherDisplay:10.37,2013-01-13 21:29:00,
2013-01-13 16:34:00,76.5,66.8,30.11,SE,135,8.8,8.8,72,0.00,CLR,,0.00,WeatherDisplay:10.37,2013-01-13 21:34:00,
2013-01-13 16:39:00,76.3,66.6,30.11,SSE,158,7.3,7.3,72,0.00,CLR,,0.00,WeatherDisplay:10.37,2013-01-13 21:39:00,
2013-01-13 16:44:00,76.3,66.6,30.11,ESE,112,6.3,6.3,72,0.00,CLR,,0.00,WeatherDisplay:10.37,2013-01-13 21:44:00,
2013-01-13 16:49:00,75.7,66.0,30.11,ESE,112,9.2,9.2,72,0.00,CLR,,0.00,WeatherDisplay:10.37,2013-01-13 21:49:00,
2013-01-13 16:54:00,75.9,65.8,30.12,SE,135,6.9,6.9,71,0.00,CLR,,0.00,WeatherDisplay:10.37,2013-01-13 21:54:00,
2013-01-13 16:59:00,75.7,65.6,30.12,ESE,112,8.1,8.1,71,0.00,CLR,,0.00,WeatherDisplay:10.37,2013-01-13 21:59:00,
2013-01-13 17:04:00,75.7,66.0,30.12,SSE,158,6.9,6.9,72,0.00,CLR,,0.00,WeatherDisplay:10.37,2013-01-13 22:04:00,
2013-01-13 17:09:00,75.9,66.2,30.12,SE,135,5.8,5.8,72,0.00,CLR,,0.00,WeatherDisplay:10.37,2013-01-13 22:09:00,
2013-01-13 17:14:00,75.7,66.4,30.12,SSE,158,8.1,8.1,73,0.00,CLR,,0.00,WeatherDisplay:10.37,2013-01-13 22:14:00,
2013-01-13 17:19:00,75.6,66.3,30.12,ESE,112,10.4,10.4,73,0.00,CLR,,0.00,WeatherDisplay:10.37,2013-01-13 22:19:00,
2013-01-13 17:24:00,75.2,66.3,30.12,SSE,158,8.8,8.8,74,0.00,CLR,,0.00,WeatherDisplay:10.37,2013-01-13 22:24:00,
2013-01-13 17:29:00,75.0,66.1,30.12,ESE,112,10.4,10.4,74,0.00,CLR,,0.00,WeatherDisplay:10.37,2013-01-13 22:29:00,
2013-01-13 17:34:00,75.0,65.8,30.12,SSE,158,11.9,11.9,73,0.00,CLR,,0.00,WeatherDisplay:10.37,2013-01-13 22:34:00,
2013-01-13 17:39:00,74.8,65.6,30.12,SSE,158,9.4,9.4,73,0.00,CLR,,0.00,WeatherDisplay:10.37,2013-01-13 22:39:00,
2013-01-13 17:44:00,74.8,65.6,30.12,ESE,112,5.8,5.9,73,0.00,CLR,,0.00,WeatherDisplay:10.37,2013-01-13 22:44:00,
2013-01-13 17:49:00,74.7,65.5,30.12,SSE,158,8.8,8.8,73,0.00,CLR,,0.00,WeatherDisplay:10.37,2013-01-13 22:49:00,
2013-01-13 17:54:00,74.7,65.5,30.12,SE,135,8.1,8.1,73,0.00,CLR,,0.00,WeatherDisplay:10.37,2013-01-13 22:54:00,
2013-01-13 17:59:00,74.5,65.3,30.12,SSE,158,6.8,6.8,73,0.00,CLR,,0.00,WeatherDisplay:10.37,2013-01-13 22:59:00,
2013-01-13 18:04:00,74.5,65.3,30.12,SSE,158,6.3,6.3,73,0.00,CLR,,0.00,WeatherDisplay:10.37,2013-01-13 23:04:00,
2013-01-13 18:09:00,74.3,65.5,30.12,ESE,112,9.2,9.2,74,0.00,CLR,,0.00,WeatherDisplay:10.37,2013-01-13 23:09:00,
2013-01-13 18:14:00,74.3,65.5,30.12,SW,225,5.8,5.8,74,0.00,CLR,,0.00,WeatherDisplay:10.37,2013-01-13 23:14:00,
2013-01-13 18:19:00,74.3,65.5,30.13,SE,135,6.9,6.9,74,0.00,CLR,,0.00,WeatherDisplay:10.37,2013-01-13 23:19:00,
2013-01-13 18:24:00,74.3,65.5,30.13,SSE,158,4.7,4.7,74,0.00,CLR,,0.00,WeatherDisplay:10.37,2013-01-13 23:24:00,
2013-01-13 18:29:00,74.3,65.1,30.12,SSE,158,6.9,6.9,73,0.00,CLR,,0.00,WeatherDisplay:10.37,2013-01-13 23:29:00,
2013-01-13 18:34:00,74.5,65.3,30.12,SE,135,10.4,10.4,73,0.00,CLR,,0.00,WeatherDisplay:10.37,2013-01-13 23:34:00,
2013-01-13 18:39:00,74.3,65.1,30.12,ESE,112,5.8,5.8,73,0.00,CLR,,0.00,WeatherDisplay:10.37,2013-01-13 23:39:00,
2013-01-13 18:44:00,74.3,65.1,30.12,SE,135,8.1,8.1,73,0.00,CLR,,0.00,WeatherDisplay:10.37,2013-01-13 23:44:00,
2013-01-13 18:49:00,74.3,65.1,30.12,SSE,158,6.9,6.9,73,0.00,CLR,,0.00,WeatherDisplay:10.37,2013-01-13 23:49:00,
2013-01-13 18:54:00,74.3,65.1,30.12,ESE,112,6.9,6.9,73,0.00,CLR,,0.00,WeatherDisplay:10.37,2013-01-13 23:54:00,
2013-01-13 18:59:00,74.3,65.5,30.12,ESE,112,10.4,10.4,74,0.00,CLR,,0.00,WeatherDisplay:10.37,2013-01-13 23:59:00,
2013-01-13 19:04:00,74.3,65.5,30.12,SSE,158,5.8,5.8,74,0.00,CLR,,0.00,WeatherDisplay:10.37,2013-01-14 00:04:00,
2013-01-13 19:09:00,74.3,65.5,30.12,SSE,158,4.7,4.7,74,0.00,CLR,,0.00,WeatherDisplay:10.37,2013-01-14 00:09:00,
2013-01-13 19:14:00,74.3,65.5,30.12,SSE,158,4.7,4.7,74,0.00,CLR,,0.00,WeatherDisplay:10.37,2013-01-14 00:14:00,
2013-01-13 19:19:00,74.3,65.5,30.12,SSE,158,4.7,4.7,74,0.00,CLR,,0.00,WeatherDisplay:10.37,2013-01-14 00:19:00,
2013-01-13 19:24:00,74.3,65.5,30.12,SSE,158,4.7,4.7,74,0.00,CLR,,0.00,WeatherDisplay:10.37,2013-01-14 00:24:00,
2013-01-13 19:29:00,74.3,65.5,30.12,SSE,158,4.7,4.7,74,0.00,CLR,,0.00,WeatherDisplay:10.37,2013-01-14 00:29:00,
2013-01-13 19:34:00,74.3,65.5,30.12,SSE,158,4.7,4.7,74,0.00,CLR,,0.00,WeatherDisplay:10.37,2013-01-14 00:34:00,
2013-01-13 19:39:00,74.3,65.5,30.12,SSE,158,4.7,4.7,74,0.00,CLR,,0.00,WeatherDisplay:10.37,2013-01-14 00:39:00,
2013-01-13 19:44:00,74.3,65.5,30.12,SSE,158,4.7,4.7,74,0.00,CLR,,0.00,WeatherDisplay:10.37,2013-01-14 00:44:00,
2013-01-13 19:49:00,74.3,65.5,30.12,SSE,158,4.7,4.7,74,0.00,CLR,,0.00,WeatherDisplay:10.37,2013-01-14 00:49:00,
2013-01-13 19:54:00,74.3,65.5,30.12,SSE,158,4.7,4.7,74,0.00,CLR,,0.00,WeatherDisplay:10.37,2013-01-14 00:54:00,
2013-01-13 19:59:00,74.3,65.5,30.12,SSE,158,4.7,4.7,74,0.00,CLR,,0.00,WeatherDisplay:10.37,2013-01-14 00:59:00,
2013-01-13 20:04:00,74.3,65.5,30.12,SSE,158,4.7,4.7,74,0.00,CLR,,0.00,WeatherDisplay:10.37,2013-01-14 01:04:00,
2013-01-13 20:09:00,74.3,65.5,30.12,SSE,158,4.7,4.7,74,0.00,CLR,,0.00,WeatherDisplay:10.37,2013-01-14 01:09:00,
2013-01-13 20:14:00,74.3,65.5,30.12,SSE,158,4.7,4.7,74,0.00,CLR,,0.00,WeatherDisplay:10.37,2013-01-14 01:14:00,
2013-01-13 20:19:00,74.3,65.5,30.12,SSE,158,4.7,4.7,74,0.00,CLR,,0.00,WeatherDisplay:10.37,2013-01-14 01:19:00,
2013-01-13 20:24:00,74.3,65.5,30.12,SSE,158,4.7,4.7,74,0.00,CLR,,0.00,WeatherDisplay:10.37,2013-01-14 01:24:00,
2013-01-13 20:29:00,74.3,65.5,30.12,SSE,158,4.7,4.7,74,0.00,CLR,,0.00,WeatherDisplay:10.37,2013-01-14 01:29:00,
2013-01-13 20:34:00,74.3,65.5,30.12,SSE,158,4.7,4.7,74,0.00,CLR,,0.00,WeatherDisplay:10.37,2013-01-14 01:34:00,
2013-01-13 20:39:00,74.3,65.5,30.12,SSE,158,4.7,4.7,74,0.00,CLR,,0.00,WeatherDisplay:10.37,2013-01-14 01:39:00,
2013-01-13 20:44:00,74.3,65.5,30.12,SSE,158,4.7,4.7,74,0.00,CLR,,0.00,WeatherDisplay:10.37,2013-01-14 01:44:00,
2013-01-13 20:49:00,74.3,65.5,30.12,SSE,158,4.7,4.7,74,0.00,CLR,,0.00,WeatherDisplay:10.37,2013-01-14 01:49:00,
2013-01-13 20:54:00,74.3,65.5,30.12,SSE,158,4.7,4.7,74,0.00,CLR,,0.00,WeatherDisplay:10.37,2013-01-14 01:54:00,
2013-01-13 20:59:00,74.3,65.5,30.12,SSE,158,4.7,4.7,74,0.00,CLR,,0.00,WeatherDisplay:10.37,2013-01-14 01:59:00,
2013-01-13 21:04:00,74.3,65.5,30.12,SSE,158,4.7,4.7,74,0.00,CLR,,0.00,WeatherDisplay:10.37,2013-01-14 02:04:00,
2013-01-13 21:09:00,74.3,65.5,30.12,SSE,158,4.7,4.7,74,0.00,CLR,,0.00,WeatherDisplay:10.37,2013-01-14 02:09:00,
2013-01-13 21:14:00,74.3,65.5,30.12,SSE,158,4.7,4.7,74,0.00,CLR,,0.00,WeatherDisplay:10.37,2013-01-14 02:14:00,
2013-01-13 21:19:00,74.3,65.5,30.12,SSE,158,4.7,4.7,74,0.00,CLR,,0.00,WeatherDisplay:10.37,2013-01-14 02:19:00,
2013-01-13 21:24:00,74.3,65.5,30.12,SSE,158,4.7,4.7,74,0.00,CLR,,0.00,WeatherDisplay:10.37,2013-01-14 02:24:00,
2013-01-13 21:29:00,74.3,65.5,30.12,SSE,158,4.7,4.7,74,0.00,CLR,,0.00,WeatherDisplay:10.37,2013-01-14 02:29:00,
2013-01-13 21:34:00,74.3,65.5,30.12,SSE,158,4.7,4.7,74,0.00,CLR,,0.00,WeatherDisplay:10.37,2013-01-14 02:34:00,
2013-01-13 21:39:00,74.3,65.5,30.12,SSE,158,4.7,4.7,74,0.00,CLR,,0.00,WeatherDisplay:10.37,2013-01-14 02:39:00,
2013-01-13 21:44:00,74.3,65.5,30.12,SSE,158,4.7,4.7,74,0.00,CLR,,0.00,WeatherDisplay:10.37,2013-01-14 02:44:00,
2013-01-13 21:49:00,74.3,65.5,30.12,SSE,158,4.7,4.7,74,0.00,CLR,,0.00,WeatherDisplay:10.37,2013-01-14 02:49:00,
2013-01-13 21:54:00,74.3,65.5,30.12,SSE,158,4.7,4.7,74,0.00,CLR,,0.00,WeatherDisplay:10.37,2013-01-14 02:54:00,
2013-01-13 21:59:00,74.3,65.5,30.12,SSE,158,4.7,4.7,74,0.00,CLR,,0.00,WeatherDisplay:10.37,2013-01-14 02:59:00,
2013-01-13 22:04:00,74.3,65.5,30.12,SSE,158,4.7,4.7,74,0.00,CLR,,0.00,WeatherDisplay:10.37,2013-01-14 03:04:00,
2013-01-13 22:09:00,74.3,65.5,30.12,SSE,158,4.7,4.7,74,0.00,CLR,,0.00,WeatherDisplay:10.37,2013-01-14 03:09:00,
2013-01-13 22:14:00,74.3,65.5,30.12,SSE,158,4.7,4.7,74,0.00,CLR,,0.00,WeatherDisplay:10.37,2013-01-14 03:14:00,
2013-01-13 22:19:00,74.3,65.5,30.12,SSE,158,4.7,4.7,74,0.00,CLR,,0.00,WeatherDisplay:10.37,2013-01-14 03:19:00,
2013-01-13 22:24:00,74.3,65.5,30.12,SSE,158,4.7,4.7,74,0.00,CLR,,0.00,WeatherDisplay:10.37,2013-01-14 03:24:00,
2013-01-13 22:29:00,74.3,65.5,30.12,SSE,158,4.7,4.7,74,0.00,CLR,,0.00,WeatherDisplay:10.37,2013-01-14 03:29:00,
2013-01-13 22:34:00,74.3,65.5,30.12,SSE,158,4.7,4.7,74,0.00,CLR,,0.00,WeatherDisplay:10.37,2013-01-14 03:34:00,
2013-01-13 22:39:00,74.3,65.5,30.12,SSE,158,4.7,4.7,74,0.00,CLR,,0.00,WeatherDisplay:10.37,2013-01-14 03:39:00,
2013-01-13 22:44:00,74.3,65.5,30.12,SSE,158,4.7,4.7,74,0.00,CLR,,0.00,WeatherDisplay:10.37,2013-01-14 03:44:00,
2013-01-13 22:49:00,74.3,65.5,30.12,SSE,158,4.7,4.7,74,0.00,CLR,,0.00,WeatherDisplay:10.37,2013-01-14 03:49:00,
2013-01-13 22:54:00,74.3,65.5,30.12,SSE,158,4.7,4.7,74,0.00,CLR,,0.00,WeatherDisplay:10.37,2013-01-14 03:54:00,
2013-01-13 22:59:00,74.3,65.5,30.12,SSE,158,4.7,4.7,74,0.00,CLR,,0.00,WeatherDisplay:10.37,2013-01-14 03:59:00,
2013-01-13 23:04:00,74.3,65.5,30.12,SSE,158,4.7,4.7,74,0.00,CLR,,0.00,WeatherDisplay:10.37,2013-01-14 04:04:00,
2013-01-13 23:09:00,74.3,65.5,30.12,SSE,158,4.7,4.7,74,0.00,CLR,,0.00,WeatherDisplay:10.37,2013-01-14 04:09:00,
2013-01-13 23:14:00,74.3,65.5,30.12,SSE,158,4.7,4.7,74,0.00,CLR,,0.00,WeatherDisplay:10.37,2013-01-14 04:14:00,
2013-01-13 23:19:00,74.3,65.5,30.12,SSE,158,4.7,4.7,74,0.00,CLR,,0.00,WeatherDisplay:10.37,2013-01-14 04:19:00,
2013-01-13 23:24:00,74.3,65.5,30.12,SSE,158,4.7,4.7,74,0.00,CLR,,0.00,WeatherDisplay:10.37,2013-01-14 04:24:00,
2013-01-13 23:29:00,74.3,65.5,30.12,SSE,158,4.7,4.7,74,0.00,CLR,,0.00,WeatherDisplay:10.37,2013-01-14 04:29:00,
2013-01-13 23:34:00,74.3,65.5,30.12,SSE,158,4.7,4.7,74,0.00,CLR,,0.00,WeatherDisplay:10.37,2013-01-14 04:34:00,
2013-01-13 23:39:00,74.3,65.5,30.12,SSE,158,4.7,4.7,74,0.00,CLR,,0.00,WeatherDisplay:10.37,2013-01-14 04:39:00,
2013-01-13 23:44:00,74.3,65.5,30.12,SSE,158,4.7,4.7,74,0.00,CLR,,0.00,WeatherDisplay:10.37,2013-01-14 04:44:00,
2013-01-13 23:49:00,74.3,65.5,30.12,SSE,158,4.7,4.7,74,0.00,CLR,,0.00,WeatherDisplay:10.37,2013-01-14 04:49:00,
2013-01-13 23:54:00,74.3,65.5,30.12,SSE,158,4.7,4.7,74,0.00,CLR,,0.00,WeatherDisplay:10.37,2013-01-14 04:54:00,
2013-01-13 23:59:00,74.3,65.5,30.12,SSE,158,4.7,4.7,74,0.00,CLR,,0.00,WeatherDisplay:10.37,2013-01-14 04:59:00,